sat.trackr.live / text

‹ back to catalog

STARLINK-36650

NORAD 67836 · 2026-033R

PAYLOAD ACTIVE UNKNOWN

§ Identity

Operator
Country
US
Launch date
2026-02-16
Launch site
AFETR
Launch vehicle
Mass (kg)
RCS (m²)

Purposes: comms

External: N2YO · Heavens-Above · Gunter

§ Orbital elements

Epoch: 2026-05-25T03:17:54.624192Z

Period
94.27 min
Inclination
42.9990°
Eccentricity
0.0001181
Mean motion
15.27604367 rev/d
Perigee alt
482.2 km
Apogee alt
483.8 km
Semi-major
6,861.1 km
B*
5.1184e-4
RAAN
195.4924°
Arg perigee
236.0827°
Mean anomaly
123.9913°
Rev number
1,636

§ Raw data

STARLINK-366501 67836U 26033R   26145.13743778  .00013860  00000+0  51184-3 0  99912 67836  42.9990 195.4924 0001181 236.0827 123.9913 15.27604367 16363

JSON: /api/v1/satellites/67836 · /tle

For live sub-satellite position, see the globe view (requires WebGL).

§ Visibility from observer

Set your observer location to see the next 7 days of passes ≥ 10°. The values pass through the URL so the page stays shareable.

No JS? Fill the form by hand. The geolocation button needs JavaScript.